Chickamauga Observed Data For Previous 48 Hours

Caption
Day and Hour Reservoir Elevation (behind dam)* Tailwater Elevation (below dam)* Average Hourly Discharge*
3/22/2019 2 AM EDT 676.42 642.02 80,802
3/22/2019 3 AM EDT 676.42 642.03 80,677
3/22/2019 4 AM EDT 676.44 642.02 80,772
3/22/2019 5 AM EDT 676.45 642.01 80,731
3/22/2019 6 AM EDT 676.45 642.00 80,696
3/22/2019 7 AM EDT 676.41 642.02 80,782
3/22/2019 8 AM EDT 676.41 642.03 80,675
3/22/2019 9 AM EDT 676.39 642.02 80,714
3/22/2019 10 AM EDT 676.40 642.02 80,608
3/22/2019 11 AM EDT 676.38 642.04 80,704
3/22/2019 12 PM EDT 676.39 642.03 80,620
3/22/2019 1 PM EDT 676.37 642.04 80,678
3/22/2019 2 PM EDT 676.34 642.04 80,618
3/22/2019 3 PM EDT 676.33 642.02 80,700
3/22/2019 4 PM EDT 676.35 642.00 80,655
3/22/2019 5 PM EDT 676.33 641.99 80,719
3/22/2019 6 PM EDT 676.29 642.00 80,572
3/22/2019 7 PM EDT 676.29 641.95 80,638
3/22/2019 8 PM EDT 676.28 641.93 80,575
3/22/2019 9 PM EDT 676.26 641.92 80,648
3/22/2019 10 PM EDT 676.27 641.87 80,567
3/22/2019 11 PM EDT 676.26 641.90 80,691
3/23/2019 12 AM EDT 676.27 641.87 80,558
3/23/2019 1 AM EDT 676.25 641.87 80,572
3/23/2019 2 AM EDT 676.23 641.87 80,454
3/23/2019 3 AM EDT 676.22 641.85 80,501
3/23/2019 4 AM EDT 676.22 641.86 80,367
3/23/2019 5 AM EDT 676.20 641.84 80,457
3/23/2019 6 AM EDT 676.18 641.80 80,299
3/23/2019 7 AM EDT 676.18 641.79 80,349
3/23/2019 8 AM EDT 676.14 641.80 80,183
3/23/2019 9 AM EDT 676.15 641.80 80,207
3/23/2019 10 AM EDT 676.12 641.82 80,127
3/23/2019 11 AM EDT 676.12 641.83 80,348
3/23/2019 12 PM EDT 676.10 641.88 80,293
3/23/2019 1 PM EDT 676.08 641.88 80,355
3/23/2019 2 PM EDT 676.06 641.88 80,212
3/23/2019 3 PM EDT 676.05 641.84 80,259
3/23/2019 4 PM EDT 676.04 641.85 80,194
3/23/2019 5 PM EDT 676.01 641.83 80,265
3/23/2019 6 PM EDT 676.02 641.82 80,180
3/23/2019 7 PM EDT 675.99 641.81 80,267
3/23/2019 8 PM EDT 675.97 641.81 80,124
3/23/2019 9 PM EDT 675.95 641.82 80,087
3/23/2019 10 PM EDT 675.94 641.82 80,132
3/23/2019 11 PM EDT 675.91 641.79 80,003
3/24/2019 12 AM EDT 675.91 641.81 80,039
3/24/2019 1 AM EDT 675.88 641.82 79,945

Elevations are in feet above sea level. Discharges are in cubic feet per second and are reported at the end of the hour.